Powrót do katalogu

COSMOS 2491 DEB

AktywnyPO
NORAD 45172·DEBRIS·🇷🇺 Russia

Wystrzelony Dec 25, 2013 z Plesetsk Cosmodrome

Loading…

Następne Przeloty (najbliższe 24 godziny)

TLE

ŚwieżeSource: Space-Track

Epoka: Sep 11, 2026, 16:34 UTC

1 45172U 13076AD  26254.69063428  .00001516  00000-0  74462-2 0  9991
2 45172  82.4589  53.4170 0132100 298.9373  59.8526 12.68913526305258

Śledź COSMOS 2491 DEB w czasie rzeczywistym z AllMySat

Download on the App Store